This is the latest recevied weather packets stored in our database for station/object W5DRO-13. If no packets are shown the sender has not sent any weather packets the latest 10 day(s).
| Time | Temp. | Humidity | Pressure | Rain* | Wind** | Luminosity | Snow |
|---|---|---|---|---|---|---|---|
| 1777671236 | 21.11° C | 35% | 1017.6 hPa | 0 mm | - | - | - |
| 1777670931 | 21.67° C | 34% | 1017.6 hPa | 0 mm | - | - | - |
| 1777670629 | 22.22° C | 33% | 1017.9 hPa | 0 mm | - | - | - |
| 1777670326 | 22.22° C | 31% | 1017.6 hPa | 0 mm | - | - | - |
| 1777670023 | 21.67° C | 33% | 1017.8 hPa | 0 mm | - | - | - |
| 1777669720 | 21.11° C | 35% | 1017.9 hPa | 0 mm | - | - | - |
| 1777669417 | 20.56° C | 36% | 1017.9 hPa | 0 mm | - | - | - |
| 1777669113 | 21.67° C | 37% | 1017.8 hPa | 0 mm | - | - | - |
| 1777668810 | 21.67° C | 36% | 1018 hPa | 0 mm | - | - | - |
| 1777668507 | 21.67° C | 36% | 1018.1 hPa | 0 mm | - | - | - |
| 1777668203 | 21.67° C | 35% | 1018.1 hPa | 0 mm | - | - | - |
| 1777667900 | 21.67° C | 36% | 1018.1 hPa | 0 mm | - | - | - |
| 1777667597 | 21.67° C | 36% | 1018.2 hPa | 0 mm | - | - | - |
| 1777667294 | 20.56° C | 37% | 1018.5 hPa | 0 mm | - | - | - |
| 1777666991 | 21.67° C | 37% | 1018.4 hPa | 0 mm | - | - | - |
| 1777666688 | 22.22° C | 38% | 1018.4 hPa | 0 mm | - | - | - |
| 1777666385 | 21.67° C | 35% | 1018.7 hPa | 0 mm | - | - | - |
| 1777666081 | 21.67° C | 36% | 1018.7 hPa | 0 mm | - | - | - |
| 1777665778 | 22.22° C | 36% | 1018.8 hPa | 0 mm | - | - | - |
| 1777665476 | 22.22° C | 36% | 1018.8 hPa | 0 mm | - | - | - |
| 1777665171 | 22.22° C | 33% | 1018.8 hPa | 0 mm | - | - | - |
| 1777664868 | 22.22° C | 35% | 1018.8 hPa | 0 mm | - | - | - |
| 1777664564 | 21.67° C | 34% | 1018.9 hPa | 0 mm | - | - | - |
| 1777664260 | 21.67° C | 34% | 1019 hPa | 0 mm | - | - | - |
| 1777663959 | 22.22° C | 35% | 1019.1 hPa | 0 mm | - | - | - |
* Rain latest hour (hover to see other rain measurements)
** Current wind speed in m/s (hover to see current wind gust speed)